Location: *
(31.2983°S, 151.4094°E)
Time: 05:27:36
(UTC+00:00)

Cosmos 1825 - Pass Details

Date: 25 August 2019
Orbit: 505 x 508 km, 82.5° (Epoch: 14 September)

Event Time Altitude Azimuth Distance (km) Brightness Sun altitude
Exits shadow 19:02:46 12° 204° (SSW) 1,598 4.4 -16.9°
Drops below altitude 10° 19:03:12 10° 200° (SSW) 1,747 4.7 -16.8°
Sets 19:05:35 0° 187° (S) 2,641 5.7 -16.3°
